This demonstration page uses our WeatherBlox Daily Observations layout. Learn more.

Left ArrowRight Arrow

Hourly Observations for April 9, 2019

Temp ( °F °C ) Dew Point ( °F °C ) Humidity (%) Winds ( mph kmh ) Pressure ( in mb ) Visibility ( mi km ) Precip ( " mm )
12:53 am 00:53 Mostly Clear 63 17.2 63 17.2 100 100 Calm 29.83 1010 10 16 0.00 0.00
1:53 am 01:53 Mostly Clear 63 17.2 63 17.2 100 100 Calm 29.83 1010 10 16 0.00 0.00
2:10 am 02:10 Mostly Cloudy 63 17.2 63 17.2 100 100 Calm 29.84 1010 10 16 0.00 0.00
2:28 am 02:28 Partly Cloudy 62 16.7 62 16.7 100 100 Calm 29.83 1010 9 14 0.00 0.00
2:47 am 02:47 Mostly Cloudy with Light Rain 64 18 64 18 100 100 Calm 29.81 1010 10 16 0.00 0.03
2:48 am 02:48 Mostly Cloudy with Light Rain 64 17.8 64 17.8 100 100 Calm 29.81 1009 10 16 0.00 0.03
2:56 am 02:56 Mostly Cloudy 64 17.8 64 17.8 100 100 Calm 29.82 1010 10 16 0.00 0.03
3:53 am 03:53 Cloudy 64 17.8 64 17.8 100 100 Calm 29.78 1009 10 16 0.00 0.03
4:53 am 04:53 Cloudy 65 18.3 65 18.3 100 100 SSW 6 9 29.79 1009 10 16 0.00 0.00
5:11 am 05:11 Cloudy 65 18.3 65 18.3 100 100 SW 7 11 29.79 1009 10 16 0.00 0.00
5:53 am 05:53 Cloudy 65 18.3 64 17.8 97 97 Calm 29.78 1009 10 16 0.00 0.00
6:53 am 06:53 Mostly Cloudy 64 17.8 64 17.8 100 100 S 6 9 29.79 1009 10 16 0.00 0.00
7:00 am 07:00 Mostly Cloudy 64 17.8 64 17.8 100 100 S 3 6 29.80 1009 10 16 0.00 0.00
7:53 am 07:53 Mostly Cloudy 63 17.2 63 17.2 100 100 S 3 6 29.80 1009 10 16 0.00 0.00
8:53 am 08:53 Mostly Cloudy 65 18.3 65 18.3 100 100 NE 3 6 29.81 1009 9 14 0.00 0.00
9:53 am 09:53 Cloudy 68 20 64 17.8 87 87 ENE 3 6 29.79 1009 10 16 0.00 0.00
9:58 am 09:58 Mostly Cloudy 68 20 64 17.8 87 87 ESE 5 7 29.80 1009 10 16 0.00 0.00
10:07 am 10:07 Cloudy 69 20.6 64 17.8 84 84 Calm 29.79 1009 10 16 0.00 0.00
10:53 am 10:53 Cloudy 70 21.1 64 17.8 82 82 NNE 5 7 29.78 1008 10 16 0.00 0.00
11:13 am 11:13 Mostly Cloudy 70 21.1 63 17.2 79 79 SE 6 9 29.78 1008 10 16 0.00 0.00
11:51 am 11:51 Mostly Cloudy 72 22 64 18 78 78 SSE 9 15 29.78 1009 10 16 0.00 0.00
11:53 am 11:53 Mostly Cloudy 72 22.2 64 17.8 76 76 SSE 9 15 29.79 1009 10 16 0.00 0.00
12:26 pm 12:26 Partly Cloudy 72 22.2 63 17.2 73 73 ESE 8 13 29.77 1008 10 16 0.00 0.00
12:53 pm 12:53 Partly Cloudy 72 22.2 64 17.8 76 76 SSE 7 11 29.76 1008 10 16 0.00 0.00
1:08 pm 13:08 Mostly Cloudy 73 22.8 64 17.8 74 74 undefined N/A 29.75 1007 10 16 0.00 0.00
1:34 pm 13:34 Mostly Cloudy 75 23.9 63 17.2 66 66 SE 9 15 29.74 1007 10 16 0.00 0.00
1:53 pm 13:53 Partly Cloudy 74 23.3 63 17.2 69 69 ESE 5 7 29.74 1007 10 16 0.00 0.00
2:31 pm 14:31 Mostly Cloudy with Nearby Thunderstorms 75 23.9 62 16.7 64 64 E 8 13 29.72 1006 10 16 0.00 0.00
2:43 pm 14:43 Mostly Cloudy with Thunderstorms 75 23.9 62 16.7 64 64 E 9 15 29.71 1006 10 16 0.00 0.00
2:53 pm 14:53 Cloudy with Thunderstorms 74 23.3 62 16.7 67 67 E 7 11 29.72 1007 10 16 0.00 0.00
3:27 pm 15:27 Cloudy with Strong Thunderstorms 67 19.4 65 18.3 93 93 WSW 13 20 29.72 1006 2 3 0.12 3.05
3:41 pm 15:41 Cloudy with Thunderstorms 64 17.8 63 17.2 96 96 WSW 8 13 29.72 1006 5 8 0.15 3.81
3:53 pm 15:53 Cloudy with Light Rain 65 18.3 64 17.8 97 97 SSW 6 9 29.70 1006 8 13 0.16 4.06
4:53 pm 16:53 Cloudy 68 20 66 18.9 93 93 Calm 29.70 1006 10 16 0.02 0.51
5:36 pm 17:36 Partly Cloudy with Nearby Thunderstorms 69 20.6 66 18.9 90 90 WSW 3 6 29.70 1006 10 16 0.00 0.00
5:53 pm 17:53 Partly Cloudy with Nearby Thunderstorms 69 20.6 67 19.4 93 93 SSW 5 7 29.71 1006 10 16 0.00 0.00
6:04 pm 18:04 Mostly Cloudy with Thunderstorms 69 20.6 67 19.4 93 93 SW 5 7 29.71 1006 10 16 0.00 0.00
6:18 pm 18:18 Windy with Storms Likely 67 19.4 65 18.3 93 93 NNE 21 33 29.74 1007 3 4 0.06 1.52
6:23 pm 18:23 Cloudy with Strong Thunderstorms 62 16.7 59 15 90 90 ENE 13 20 29.76 1008 3 5 0.25 6.35
6:37 pm 18:37 Cloudy with Strong Thunderstorms 64 17.8 62 16.7 93 93 E 7 11 29.73 1007 3 5 0.44 11.18
6:53 pm 18:53 Cloudy with Thunderstorms 63 17.2 62 16.7 97 97 Calm 29.73 1007 10 16 0.45 11.43
7:03 pm 19:03 Cloudy with Light Rain 63 17.2 62 16.7 97 97 Calm 29.74 1007 10 16 0.01 0.25
7:53 pm 19:53 Mostly Sunny 63 17.2 63 17.2 100 100 NE 3 6 29.73 1007 10 16 0.01 0.25
8:53 pm 20:53 Clear 63 17.2 62 16.7 97 97 Calm 29.73 1007 10 16 0.00 0.00
9:53 pm 21:53 Clear 61 16.1 61 16.1 100 100 Calm 29.76 1008 10 16 0.00 0.00
10:16 pm 22:16 Mostly Clear with Mist and Fog 60 15.6 60 15.6 100 100 Calm 29.77 1008 2 2 0.00 0.00
10:26 pm 22:26 Mostly Clear with Mist and Fog 60 15.6 60 15.6 100 100 Calm 29.77 1008 3 5 0.00 0.00
10:53 pm 22:53 Clear 61 16.1 61 16.1 100 100 Calm 29.76 1008 10 16 0.00 0.00
11:00 pm 23:00 Clear with Mist and Fog 59 15 59 15 100 100 Calm 29.77 1008 2 3 0.00 0.00
11:08 pm 23:08 Clear with Fog 58 14.4 58 14.4 100 100 Calm 29.78 1008 1 1 0.00 0.00
11:17 pm 23:17 Mostly Cloudy with Fog 58 14.4 58 14.4 100 100 Calm 29.78 1008 1 1 0.00 0.00
11:44 pm 23:44 Mostly Cloudy with Mist and Fog 59 15 59 15 100 100 Calm 29.77 1008 1 2 0.00 0.00
11:49 pm 23:49 Clear with Mist and Fog 59 15 59 15 100 100 Calm 29.77 1008 2 3 0.00 0.00
11:53 pm 23:53 Clear with Mist and Fog 59 15 59 15 100 100 Calm 29.76 1008 3 4 0.00 0.00

Powered by AerisWeather